Lincoln, NE

10:57 AM CST on January 21, 2017 (GMT -0600)
Lincoln Municipal Airport

Weather History for KLNK - May, 2013

Change the Weather History Date:

Sunday, May 12, 2013

  Actual Average Record
Temperature  
Mean Temperature 49 °F 61 °F  
Max Temperature 67 °F 73 °F 97 °F (1956)
Min Temperature 31 °F 49 °F 31 °F (2013)
Degree Days  
Heating Degree Days 16 6  
Month to date heating degree days 166 85  
Since 1 July heating degree days 6287 5978  
Cooling Degree Days 0 2  
Month to date cooling degree days 0 13  
Year to date cooling degree days 4 27  
Moisture  
Dew Point 29 °F    
Average Humidity 54    
Maximum Humidity 85    
Minimum Humidity 22    
Precipitation  
Precipitation 0.00 in 0.15 in 1.55 in (1896)
Month to date precipitation 1.37 1.66  
Year to date precipitation 8.78 7.71  
Snow  
Snow 0.00 in 0.00 in - ()
Month to date snowfall 2.7 0.1  
Since 1 July snowfall 27.5 26.0  
Snow Depth 0.00 in    
Sea Level Pressure  
Sea Level Pressure 30.23 in    
Wind  
Wind Speed 4 mph (SE)    
Max Wind Speed 12 mph    
Max Gust Speed 15 mph    
Visibility 10 miles    
Events      
T = Trace of Precipitation, MM = Missing Value Source: NWS Daily Summary

Daily Weather History Graph

Daily Weather History Graph

Search for Another Location

Airport or City:

Trip Planner

Search our weather history database for the weather conditions in past years. The results will help you decide how hot, cold, wet, or windy it might be!

Date:

Astronomy

May. 12, 2013 Rise Set
Actual Time 6:12 AM CDT 8:35 PM CDT
Civil Twilight 5:41 AM CDT 9:06 PM CDT
Nautical Twilight 5:03 AM CDT 9:44 PM CDT
Astronomical Twilight 4:20 AM CDT 10:27 PM CDT
Moon 8:08 AM CDT (5/12) 11:03 PM CDT (5/12)
Length of Visible Light 15h 24m
Length of Day
14h 22m
Waxing Crescent, 7% of the Moon is Illuminated
May 12
Waxing Crescent
May 17
First Quarter
May 24
Full
May 31
Last Quarter
Jun 8
New

Hourly Weather History & Observations

Time (CDT) Temp. Windchill Dew Point Humidity Pressure Visibility Wind Dir Wind Speed Gust Speed Precip Events Conditions
12:54 AM 34.0 °F 28.8 °F 27.0 °F 75% 30.29 in 10.0 mi North 5.8 mph - N/A   Clear
1:54 AM 35.1 °F - 28.0 °F 76% 30.29 in 10.0 mi Calm Calm - N/A   Clear
2:54 AM 30.9 °F - 26.1 °F 82% 30.30 in 10.0 mi Calm Calm - N/A   Mostly Cloudy
3:54 AM 32.0 °F 26.4 °F 27.0 °F 82% 30.30 in 10.0 mi North 5.8 mph - N/A   Partly Cloudy
4:54 AM 35.1 °F - 28.9 °F 78% 30.30 in 10.0 mi Calm Calm - N/A   Mostly Cloudy
5:54 AM 34.0 °F - 28.9 °F 82% 30.30 in 10.0 mi Calm Calm - N/A   Overcast
6:54 AM 36.0 °F - 30.9 °F 82% 30.31 in 10.0 mi Calm Calm - N/A   Mostly Cloudy
7:54 AM 41.0 °F - 33.1 °F 73% 30.30 in 10.0 mi Calm Calm - N/A   Overcast
8:54 AM 46.0 °F - 33.1 °F 61% 30.30 in 10.0 mi Calm Calm - N/A   Scattered Clouds
9:54 AM 51.1 °F - 27.0 °F 39% 30.30 in 10.0 mi SSE 5.8 mph - N/A   Clear
10:54 AM 54.0 °F - 21.9 °F 29% 30.29 in 10.0 mi SE 4.6 mph - N/A   Scattered Clouds
11:54 AM 57.9 °F - 24.1 °F 27% 30.26 in 10.0 mi SE 6.9 mph - N/A   Clear
12:54 PM 61.0 °F - 25.0 °F 25% 30.25 in 10.0 mi ENE 6.9 mph - N/A   Mostly Cloudy
1:54 PM 63.0 °F - 24.1 °F 23% 30.22 in 10.0 mi Variable 3.5 mph - N/A   Overcast
2:54 PM 64.9 °F - 24.1 °F 21% 30.21 in 10.0 mi Variable 3.5 mph - N/A   Mostly Cloudy
3:54 PM 63.0 °F - 27.0 °F 26% 30.18 in 10.0 mi SE 4.6 mph - N/A   Scattered Clouds
4:54 PM 66.0 °F - 26.1 °F 22% 30.16 in 10.0 mi Calm Calm - N/A   Clear
5:54 PM 66.0 °F - 30.0 °F 26% 30.14 in 10.0 mi SSE 6.9 mph - N/A   Clear
6:54 PM 64.9 °F - 35.1 °F 33% 30.12 in 10.0 mi SSE 4.6 mph - N/A   Clear
7:54 PM 62.1 °F - 33.1 °F 34% 30.11 in 10.0 mi SE 10.4 mph - N/A   Clear
8:54 PM 59.0 °F - 33.1 °F 38% 30.12 in 10.0 mi SE 6.9 mph - N/A   Clear
9:54 PM 55.9 °F - 35.1 °F 45% 30.13 in 10.0 mi SE 6.9 mph - N/A   Clear
10:54 PM 51.1 °F - 36.0 °F 56% 30.13 in 10.0 mi South 5.8 mph - N/A   Clear
11:54 PM 48.0 °F - 36.0 °F 63% 30.12 in 10.0 mi South 6.9 mph - N/A   Clear